Location: Boiro
(42.6475°N, 8.8834°W)
Time: 22:49:45
(UTC+01:00)

A-11 Canister half - Pass Details

Date: 04 December 2021
Orbit: 1516 x 1684 km, 47.2° (Epoch: 18 January)

Event Time Altitude Azimuth Distance (km) Brightness Sun altitude
Rises 10:13:56 0° 260° (W) 4,785 11.3 11.5°
Reaches altitude 10° 10:17:01 10° 262° (W) 3,823 10.8 11.9°
Maximum altitude 10:26:50 73° 347° (NNW) 1,708 9.3 13.1°
Drops below altitude 10° 10:36:58 10° 73° (ENE) 3,938 11.5 14.3°
Sets 10:40:12 0° 75° (ENE) 4,935 12.0 14.7°
